www.pogodaiklimat.ru

Погода и климат >> Архив погоды >> Россия >> Алтай >> Кызыл-Озек


АРХИВ ПОГОДЫ в Кызыл-Озеке

Время (UTC), дата Ветер
(напр.,м/с)
 
Видим.   Явления Облачность Т
(С)
Тd
(С)
f
(%)
Тe
(С)
Тes
(С)
Комфортность P
(гПа)
Po
(гПа)
Тmin
(С)
Tmax
(С)
R
(мм)
R24
(мм)
S
(см)
15 15.09 штиль 0 50 км ясно +9.1 +7.6 90 +8 +8 1020.4 981.4
18 15.09 Ю 2 50 км 3/0
[Ci fib]
+7.7 +6.3 91 +6 +6 1020.6 981.4
21 15.09 Ю 2 50 км 1/0
[Ac trans]
+6.1 +4.8 91 +4 +4 1021.3 981.9
00 16.09 Ю 1 50 км 3/0
[Ac trans]
+5.1 +3.8 91 +4 +4 1022.4 982.8 +5.1
03 16.09 Ю 1 50 км 3/0
[Ci fib]
+12.9 +8.7 76 +13 +17 1021.1 982.6 +5.1
06 16.09 СЗ 2 50 км 3/3 600 м
[Cu hum]
+20.4 +7.3 43 +22 +28 комфорт 1018.4 981.0
09 16.09 СВ 2 50 км 3/3 600 м
[Cu hum]
+20.7 +8.2 45 +23 +26 комфорт 1016.8 979.5
12 16.09 штиль 0 50 км ясно +17.4 +9.7 61 +17 +18 1016.5 978.8 +21.7
15 16.09 ЮВ 1 50 км ясно +9.8 +7.9 88 +9 +9 1018.3 979.5
18 16.09 Ю 1 50 км ясно +8.0 +6.5 90 +7 +7 1018.1 979.1
21 16.09 Ю 1 50 км 6/0
[Ci fib]
+6.6 +5.2 91 +5 +5 1017.7 978.5
00 17.09 Ю 2 50 км 10/6 1000 м
[Sc Ac trans Ci fib]
+6.5 +5.0 90 +4 +4 1018.2 979.0 +6.4
03 17.09 Ю 2 50 км 10/6 1000 м
[Sc Ac trans Ci sp]
+11.1 +8.3 83 +10 +11 1018.7 980.1
06 17.09 ЮВ 2 50 км 10/9 1000 м
[Sc Ci sp]
+18.1 +7.7 51 +19 +19 1017.8 980.1
09 17.09 С 2 50 км 10/10 1000 м
[Sc]
+18.7 +7.8 49 +20 +20 1018.1 980.5
12 17.09 штиль 0 50 км {ливн. осадки} 6/5 1000 м
[Sc diur, vesp Ac cast]
+14.7 +11.0 78 +14 +14 1019.4 981.2 +21.2 0.5
15 17.09 ЮЗ 1 50 км 4/0
[Ac trans]
+11.4 +8.9 85 +11 +11 1021.1 982.4
18 17.09 Ю 2 50 км 9/0
[Ac trans Ci fib]
+9.4 +7.5 88 +8 +8 1022.4 983.4
00 18.09 Ю 1 50 км {ливн. осадки} 10/10 600 м
[Cb cap]
+10.6 +8.6 87 +10 +10 1023.1 984.2 +9.4 0.7
03 18.09 Ю 2 50 км слаб. ливневой дождь 10/10 1000 м
[Cb cap]
+13.7 +9.6 76 +13 +13 1022.8 984.3
06 18.09 Ю 1 50 км {ливн. осадки} 10/10 1000 м
[Sc diur, vesp]
+19.8 +9.0 50 +22 +22 комфорт 1020.7 983.1
09 18.09 ЮВ 2 50 км 10/1 1000 м
[Sc diur, vesp Ac trans Cc]
+21.6 +7.3 40 +23 +25 комфорт 1019.6 982.3
12 18.09 Ю 1 50 км 10/1 1000 м
[Sc diur, vesp Ac lent Cc]
+18.0 +11.1 64 +19 +19 1019.7 982.0 +22.0 0.0
15 18.09 Ю 1 50 км 10/0
[Ci fib]
+13.0 +8.7 75 +13 +13 1020.7 982.2
18 18.09 Ю 2 50 км 10/0
[Cc]
+10.4 +7.4 82 +9 +9 1020.6 981.8
21 18.09 Ю 2 50 км 10/0
[Ci fib]
+8.7 +6.4 85 +7 +7 1020.1 981.1
00 19.09 Ю 2 50 км 10/0
[Ci sp]
+8.1 +6.0 87 +6 +6 1020.2 981.1 +7.9
03 19.09 ЮВ 2 50 км 6/0
[Ci fib]
+17.5 +6.9 50 +18 +21 1018.2 980.4
06 19.09 ЮЗ 1 50 км 10/0
[Ci sp]
+23.2 +5.9 33 +24 +31 комфорт 1016.1 979.1
12 19.09 С 1 50 км 10/0
[Ac trans Ci fib]
+18.9 +11.0 60 +21 +21 комфорт 1016.5 979.0 +25.2
00 20.09 Ю 2 50 км 3/0
[Ci fib]
+7.1 +5.5 90 +5 +5 1016.4 977.3 +7.0
12 20.09 СЗ 2
{10}
50 км 10/8 1000 м
[Sc diur, vesp Ac trans Ci fib]
+24.4 +6.2 31 +24 +24 комфорт 1011.9 975.2 +30.7
00 21.09 Ю 1 50 км 10/10 1000 м
[Sc diur, vesp]
+9.2 +5.9 80 +9 +9 1021.2 982.2 +8.8
12 21.09 В 1 50 км 10/3 1000 м
[Sc Ac trans Ci sp]
+14.6 +6.3 57 +15 +15 1021.4 983.1 +19.8
00 22.09 штиль 0 50 км 3/0
[Ci fib]
+3.5 +1.7 88 +2 +2 1021.9 981.9 +3.5

 

Местоположение метеостанции Кызыл-Озек (Алтай, Россия): широта 51.90 долгота 86.00 высота над уровнем моря 326 м.

В архиве по умолчанию представлена погода в Кызыл-Озеке за последнюю неделю. Архивные данные за месяц целиком и за предыдущие месяцы, начиная с января 2011 года, Вы можете получить, выбрав интересующий диапазон дат из раскрывающегося списка и нажав кнопку "Ввод!".


*Определитесь, кто Вы:
робот инопланетянин человек

Внимание! Время в таблицах - всемирное. Для получения местного времени необходимо прибавить поправку, которая равна 7 ч.

Смотрите также архив погоды в соседних городах и на ближайших метеорологических станциях:

Погода в Горно-Алтайске (Алтай, Россия) (14 км)
Погода в Чое (Алтай, Россия) (38 км)
Погода в Чемале (Алтай, Россия) (58 км)
Погода в Шебалино (Алтай, Россия) (70 км)
Погода в Белокурихе (Алтайский край, Россия) (71 км)
Погода в Турочаке (Алтай, Россия) (87 км)
Погода в Бийске АМС (Алтайский край, Россия) (90 км)
Погода в Яйлю (Алтай, Россия) (111 км)
Погода в Бийске (Алтайский край, Россия) (113 км)
Погода в Солонешном (Алтайский край, Россия) (119 км)

Пояснения к столбцам:

Ветер - указаны скорость ветра в м/с - средняя за 10 мин, порывы в срок и между сроками (в фигурных скобках) и направление, откуда дует ветер: С - северный, СВ - северо-восточный, В - восточный, ЮВ - юго-восточный, Ю - южный, ЮЗ - юго-западный, З - западный, СЗ - северо-западный.
Видимость - горизонтальная дальность видимости в метрах или километрах. При видимости от 1 до 10 км при отсутствии осадков обычно наблюдается дымка, при ухудшении видимости до 1 км и менее - туман. В сухую погоду видимость может ухудшаться дымом, пылью или мглою.
Явления - указаны атмосферные явления, наблюдавшиеся в срок или в последний час перед сроком; фигурными скобками обозначены явления, наблюдавшиеся между сроками (за 1-3 часа до срока); квадратными скобками обозначены град или гололедные отложения с указанием их диаметра в мм.
Облачность - указаны через наклонную черту общая и нижняя облачность в баллах и высота нижней границы облаков в метрах; квадратными скобками обозначены формы облаков: Ci - перистые, Cs - перисто-слоистые, Cc - перисто-кучевые, Ac - высококучевые, As - высокослоистые, Sc - слоисто-кучевые, Ns - слоисто-дождевые, Cu - кучевые, Cb - кучево-дождевые. Подробнее классификацию облаков см. в Атласе облаков (PDF).
T - Температура воздуха - температура, измеренная на высоте 2 м над землей.
Td - Температура точки росы - температура, при понижении до которой содержащийся в воздухе водяной пар достигнет насыщения.
f - Относительная влажность воздуха - влажноcть воздуха, измеренная на высоте 2 м над землей.
Te - Эффективная температура - температура, которую ощущает одетый по сезону человек в тени. Характеристика душности погоды. При расчете учитывается влияние влажности воздуха и скорости ветра на теплоощущения человека.
Tes - Эффективная температура на солнце - температура, которую ощущает человек, с поправкой на солнечный нагрев. Характеристика знойности погоды. Зависит от высоты солнца над горизонтом, облачности и скорости ветра. Ночью, в пасмурную погоду, а также при ветре 12 м/с и более поправка равна нулю.
P - Атмосферное давление - приведенное к уровню моря атмосферное давление.
Po - Атмосферное давление - измеренное на уровне метеостанции атмосферное давление.
Tmin - Минимальная температура - минимум температуры воздуха на высоте 2 м над землей.
Tmax - Максимальная температура - максимум температуры воздуха на высоте 2 м над землей.
R - Количество осадков - Количество выпавших осадков за период времени, мм. При наведении курсора мыши на число - период времени, за который выпало указанное количество осадков.
R24 - Количество осадков - Количество выпавших осадков за 24 часа, мм.
S - Снежный покров - Высота снежного покрова, см. При наведении курсора мыши на число - состояние снежного покрова и степень покрытия местности в баллах.